DW3200 Weather Reports


Display with metric or nautical units.
time (UTC)temp
F
wind
direction
speed
MPH
gust
MPH
rain 1hr
in
rain 24hr
in
rain mn
in
humidity
%
barometer
mb
20260905034511 51 10 0.0 0.0 0.00 0.00 0.07 79 1014.8
20260905033008 52 10 0.0 0.0 0.00 0.00 0.07 77 1014.7
20260905031508 53 10 0.0 0.0 0.00 0.00 0.07 74 1014.7
20260905030008 55 10 0.0 0.0 0.00 0.00 0.07 70 1014.7
20260905024508 56 10 0.0 0.0 0.00 0.00 0.07 67 1014.5
20260905023007 58 10 0.0 0.0 0.00 0.00 0.07 64 1014.4
20260905021507 59 10 0.0 0.0 0.00 0.00 0.07 62 1014.3
20260905020006 60 10 0.0 0.0 0.00 0.00 0.07 60 1014.1
20260905014547 60 10 0.0 0.0 0.00 0.00 0.07 58 1014.3
20260905013056 61 10 0.0 0.0 0.00 0.00 0.07 56 1014.4
20260905011530 61 10 1.0 0.0 0.00 0.00 0.07 53 1014.2
20260905010031 61 10 1.0 0.0 0.00 0.00 0.07 54 1014.2
20260905004512 62 294 1.0 0.0 0.00 0.00 0.07 49 1014.1
20260905003018 62 294 1.0 0.0 0.00 0.00 0.07 49 1014.3
20260905001557 62 293 0.0 0.0 0.00 0.00 0.07 50 1014.2
20260905000056 62 293 2.0 0.0 0.00 0.00 0.07 48 1014.1
20260904234543 63 286 2.0 0.0 0.00 0.00 0.07 46 1014.0
20260904233037 62 284 0.0 0.0 0.00 0.00 0.07 49 1013.9
20260904231522 62 281 1.0 0.0 0.00 0.00 0.07 51 1013.7
20260904230022 63 280 2.0 0.0 0.00 0.00 0.07 50 1013.7
20260904224559 64 277 1.0 0.0 0.00 0.00 0.07 45 1014.0
20260904223100 64 279 0.0 0.0 0.00 0.00 0.07 43 1013.7
20260904221542 63 279 1.0 0.0 0.00 0.00 0.07 44 1013.7
20260904220105 63 279 1.0 0.0 0.00 0.00 0.07 46 1013.5
20260904214533 63 280 2.0 0.0 0.00 0.00 0.07 45 1013.7
20260904213020 62 286 2.0 0.0 0.00 0.00 0.07 45 1013.6
20260904211501 63 287 1.0 0.0 0.00 0.00 0.07 47 1013.9
20260904210200 62 287 2.0 0.0 0.00 0.00 0.07 50 1013.8
20260904204541 62 287 3.0 0.0 0.00 0.00 0.07 52 1014.0
20260904203048 62 256 2.0 0.0 0.00 0.00 0.07 50 1013.9
20260904201519 61 214 0.0 0.0 0.00 0.00 0.07 55 1014.1
20260904200019 60 215 1.0 0.0 0.00 0.00 0.07 57 1014.2
20260904194613 61 215 0.0 0.0 0.00 0.00 0.07 57 1014.2
20260904193105 59 216 0.0 0.0 0.00 0.00 0.07 59 1014.6
20260904191546 60 233 2.0 0.0 0.00 0.00 0.07 60 1014.6
20260904190046 59 265 2.0 0.0 0.00 0.00 0.07 62 1014.4
20260904184526 59 178 1.0 0.0 0.00 0.00 0.07 65 1014.6
20260904183018 58 177 1.0 0.0 0.00 0.00 0.07 65 1014.6
20260904181617 57 180 1.0 0.0 0.00 0.00 0.07 68 1014.7
20260904180121 56 180 1.0 0.0 0.00 0.00 0.07 67 1014.6
20260904174608 56 182 1.0 0.0 0.00 0.00 0.07 70 1014.7
20260904173041 55 186 1.0 0.0 0.00 0.00 0.07 74 1014.6
20260904171535 54 180 1.0 0.0 0.00 0.00 0.07 78 1014.7
20260904170015 52 194 3.0 0.0 0.00 0.00 0.07 84 1014.6
20260904164512 50 164 2.0 0.0 0.00 0.00 0.07 91 1014.5
20260904163047 49 151 1.0 0.0 0.00 0.00 0.06 93 1014.4
20260904161551 49 150 3.0 0.0 0.00 0.00 0.05 94 1014.4
20260904160032 49 101 1.0 0.0 0.00 0.00 0.05 95 1014.3
20260904154526 48 126 1.0 0.0 0.00 0.00 0.04 95 1014.1
20260904153003 47 257 0.0 0.0 0.00 0.00 0.04 95 1014.0
20260904151600 46 257 0.0 0.0 0.00 0.00 0.03 95 1014.0
20260904150041 46 257 0.0 0.0 0.00 0.00 0.03 95 1013.9
20260904144555 45 257 0.0 0.0 0.00 0.00 0.02 95 1013.7
20260904143019 45 257 0.0 0.0 0.00 0.00 0.01 95 1013.2
20260904141529 45 257 0.0 0.0 0.00 0.00 0.01 95 1012.9
20260904140059 45 257 0.0 0.0 0.00 0.00 0.65 95 1013.0
20260904134557 44 257 0.0 0.0 0.00 0.00 0.64 95 1012.8
20260904133038 44 257 0.0 0.0 0.00 0.00 0.64 95 1012.6
20260904131534 45 257 0.0 0.0 0.00 0.00 0.63 95 1012.1
20260904130020 45 257 0.0 0.0 0.00 0.00 0.62 95 1011.9
20260904124520 45 257 0.0 0.0 0.00 0.00 0.61 95 1012.2
20260904123055 45 257 0.0 0.0 0.00 0.00 0.60 95 1012.0
20260904121555 46 257 0.0 0.0 0.00 0.00 0.59 95 1011.9
20260904120048 46 257 0.0 0.0 0.00 0.00 0.57 95 1011.7
20260904114543 46 257 0.0 0.0 0.00 0.00 0.56 95 1011.7
20260904113027 46 257 0.0 0.0 0.00 0.00 0.56 95 1011.5
20260904111516 46 257 0.0 0.0 0.00 0.00 0.55 95 1011.5
20260904110100 46 257 0.0 0.0 0.00 0.00 0.54 95 1010.9
20260904104559 46 257 0.0 0.0 0.00 0.00 0.53 95 1010.7
20260904103040 46 257 0.0 0.0 0.00 0.00 0.52 95 1010.3
20260904101537 46 257 0.0 0.0 0.00 0.00 0.51 95 1010.4
20260904100022 46 257 1.0 0.0 0.00 0.00 0.50 95 1010.5
20260904094532 46 257 2.0 0.0 0.00 0.00 0.48 94 1010.0
20260904093002 46 257 0.0 0.0 0.00 0.00 0.47 94 1009.9
20260904091600 46 257 2.0 0.0 0.00 0.00 0.46 94 1009.9
20260904090044 47 265 3.0 0.0 0.00 0.00 0.45 94 1010.5
20260904084541 47 270 0.0 0.0 0.00 0.00 0.43 94 1009.9
20260904083023 47 270 0.0 0.0 0.00 0.00 0.42 94 1009.7
20260904081522 47 270 1.0 0.0 0.00 0.00 0.40 94 1009.6
20260904080004 47 270 2.0 0.0 0.00 0.00 0.39 94 1009.7
20260904074504 47 271 0.0 0.0 0.00 0.00 0.38 94 1009.8
20260904073056 47 271 0.0 0.0 0.00 0.00 0.36 94 1009.6
20260904071547 47 271 1.0 0.0 0.00 0.00 0.34 94 1009.7
20260904070027 47 271 0.0 0.0 0.00 0.00 0.33 93 1009.3
20260904064532 47 271 3.0 0.0 0.00 0.00 0.32 93 1009.2
20260904063012 47 280 5.0 0.0 0.00 0.00 0.30 93 1008.9
20260904061504 48 283 5.0 0.0 0.00 0.00 0.28 93 1008.5
20260904060104 48 288 5.0 0.0 0.00 0.00 0.28 93 1008.4
20260904054551 48 281 6.0 0.0 0.00 0.00 0.26 93 1008.3
20260904053025 48 288 7.0 0.0 0.00 0.00 0.25 92 1008.2
20260904051522 50 296 3.0 0.0 0.00 0.00 0.24 92 1008.1
20260904050001 51 304 3.0 0.0 0.00 0.00 0.22 92 1007.9
20260904044602 51 360 4.0 0.0 0.00 0.00 0.21 92 1007.9
20260904043042 51 14 0.0 0.0 0.00 0.00 0.20 92 1008.4
20260904041543 51 14 0.0 0.0 0.00 0.00 0.20 91 1008.5
20260904040037 52 14 0.0 0.0 0.00 0.00 0.18 91 1008.6